Year,Month,Day,Hour,Minute,Value (Times are PST for temperature in C)
2016,04,08,00,00,13.30
2016,04,08,00,01,13.30
2016,04,08,00,02,13.30
2016,04,08,00,03,13.30
2016,04,08,00,04,13.30
2016,04,08,00,05,13.30
2016,04,08,00,06,13.20
2016,04,08,00,07,13.20
2016,04,08,00,08,13.20
2016,04,08,00,09,13.20
2016,04,08,00,10,13.20
2016,04,08,00,11,13.20
2016,04,08,00,12,13.10
2016,04,08,00,13,13.00
2016,04,08,00,14,13.00
2016,04,08,00,15,12.90
2016,04,08,00,16,12.80
2016,04,08,00,17,12.80
2016,04,08,00,18,12.80
2016,04,08,00,19,12.80
2016,04,08,00,20,12.80
2016,04,08,00,21,12.80
2016,04,08,00,22,12.80
2016,04,08,00,23,12.80
2016,04,08,00,24,12.90
2016,04,08,00,25,12.90
2016,04,08,00,26,12.90
2016,04,08,00,27,13.00
2016,04,08,00,28,13.00
2016,04,08,00,29,13.00
2016,04,08,00,30,13.10
2016,04,08,00,31,13.10
2016,04,08,00,32,13.10
2016,04,08,00,33,13.20
2016,04,08,00,34,13.20
2016,04,08,00,35,13.20
2016,04,08,00,36,13.20
2016,04,08,00,37,13.20
2016,04,08,00,38,13.20
2016,04,08,00,39,13.10
2016,04,08,00,40,13.00
2016,04,08,00,41,12.80
2016,04,08,00,42,12.80
2016,04,08,00,43,12.70
2016,04,08,00,44,12.70
2016,04,08,00,45,12.60
2016,04,08,00,46,12.50
2016,04,08,00,47,12.40
2016,04,08,00,48,12.40
2016,04,08,00,49,12.30
2016,04,08,00,50,12.30
2016,04,08,00,51,12.30
2016,04,08,00,52,12.30
2016,04,08,00,53,12.20
2016,04,08,00,54,12.20
2016,04,08,00,55,12.10
2016,04,08,00,56,12.00
2016,04,08,00,57,12.00
2016,04,08,00,58,11.90
2016,04,08,00,59,11.90
2016,04,08,01,00,11.90
2016,04,08,01,01,11.90
2016,04,08,01,02,11.90
2016,04,08,01,03,11.90
2016,04,08,01,04,11.90
2016,04,08,01,05,11.80
2016,04,08,01,06,11.80
2016,04,08,01,07,11.70
2016,04,08,01,08,11.60
2016,04,08,01,09,11.50
2016,04,08,01,10,11.50
2016,04,08,01,11,11.40
2016,04,08,01,12,11.30
2016,04,08,01,13,11.20
2016,04,08,01,14,11.20
2016,04,08,01,15,11.10
2016,04,08,01,16,11.00
2016,04,08,01,17,10.90
2016,04,08,01,18,10.90
2016,04,08,01,19,10.80
2016,04,08,01,20,10.70
2016,04,08,01,21,10.60
2016,04,08,01,22,10.50
2016,04,08,01,23,10.40
2016,04,08,01,24,10.30
2016,04,08,01,25,10.30
2016,04,08,01,26,10.30
2016,04,08,01,27,10.30
2016,04,08,01,28,10.30
2016,04,08,01,29,10.30
2016,04,08,01,30,10.30
2016,04,08,01,31,10.40
2016,04,08,01,32,10.40
2016,04,08,01,33,10.40
2016,04,08,01,34,10.40
2016,04,08,01,35,10.40
2016,04,08,01,36,10.50
2016,04,08,01,37,10.50
2016,04,08,01,38,10.50
2016,04,08,01,39,10.60
2016,04,08,01,40,10.60
2016,04,08,01,41,10.60
2016,04,08,01,42,10.70
2016,04,08,01,43,10.80
2016,04,08,01,44,10.90
2016,04,08,01,45,11.10
2016,04,08,01,46,11.20
2016,04,08,01,47,11.30
2016,04,08,01,48,11.40
2016,04,08,01,49,11.50
2016,04,08,01,50,11.60
2016,04,08,01,51,11.60
2016,04,08,01,52,11.70
2016,04,08,01,53,11.70
2016,04,08,01,54,11.80
2016,04,08,01,55,11.90
2016,04,08,01,56,12.00
2016,04,08,01,57,12.10
2016,04,08,01,58,12.10
2016,04,08,01,59,12.20
2016,04,08,02,00,12.20
2016,04,08,02,01,12.30
2016,04,08,02,02,12.30
2016,04,08,02,03,12.30
2016,04,08,02,04,12.40
2016,04,08,02,05,12.40
2016,04,08,02,06,12.40
2016,04,08,02,07,12.50
2016,04,08,02,08,12.50
2016,04,08,02,09,12.50
2016,04,08,02,10,12.50
2016,04,08,02,11,12.60
2016,04,08,02,12,12.60
2016,04,08,02,13,12.60
2016,04,08,02,14,12.70
2016,04,08,02,15,12.70
2016,04,08,02,16,12.80
2016,04,08,02,17,12.80
2016,04,08,02,18,12.80
2016,04,08,02,19,12.90
2016,04,08,02,20,12.90
2016,04,08,02,21,12.90
2016,04,08,02,22,12.90
2016,04,08,02,23,12.90
2016,04,08,02,24,12.90
2016,04,08,02,25,12.90
2016,04,08,02,26,12.90
2016,04,08,02,27,12.90
2016,04,08,02,28,12.90
2016,04,08,02,29,12.90
2016,04,08,02,30,12.90
2016,04,08,02,31,12.90
2016,04,08,02,32,12.90
2016,04,08,02,33,12.90
2016,04,08,02,34,12.80
2016,04,08,02,35,12.80
2016,04,08,02,36,12.80
2016,04,08,02,37,12.90
2016,04,08,02,38,12.90
2016,04,08,02,39,12.90
2016,04,08,02,40,12.90
2016,04,08,02,41,12.80
2016,04,08,02,42,12.70
2016,04,08,02,43,12.60
2016,04,08,02,44,12.50
2016,04,08,02,45,12.50
2016,04,08,02,46,12.40
2016,04,08,02,47,12.40
2016,04,08,02,48,12.40
2016,04,08,02,49,12.40
2016,04,08,02,50,12.40
2016,04,08,02,51,12.40
2016,04,08,02,52,12.40
2016,04,08,02,53,12.40
2016,04,08,02,54,12.40
2016,04,08,02,55,12.40
2016,04,08,02,56,12.40
2016,04,08,02,57,12.40
2016,04,08,02,58,12.30
2016,04,08,02,59,12.30
2016,04,08,03,00,12.20
2016,04,08,03,01,12.20
2016,04,08,03,02,12.10
2016,04,08,03,03,12.10
2016,04,08,03,04,12.10
2016,04,08,03,05,12.10
2016,04,08,03,06,12.10
2016,04,08,03,07,12.10
2016,04,08,03,08,12.10
2016,04,08,03,09,12.10
2016,04,08,03,10,12.10
2016,04,08,03,11,12.10
2016,04,08,03,12,12.00
2016,04,08,03,13,12.00
2016,04,08,03,14,12.00
2016,04,08,03,15,11.90
2016,04,08,03,16,11.90
2016,04,08,03,17,11.90
2016,04,08,03,18,11.90
2016,04,08,03,19,11.90
2016,04,08,03,20,12.00
2016,04,08,03,21,12.00
2016,04,08,03,22,11.90
2016,04,08,03,23,11.90
2016,04,08,03,24,11.90
2016,04,08,03,25,11.90
2016,04,08,03,26,11.90
2016,04,08,03,27,11.80
2016,04,08,03,28,11.80
2016,04,08,03,29,11.80
2016,04,08,03,30,11.80
2016,04,08,03,31,11.80
2016,04,08,03,32,11.80
2016,04,08,03,33,11.70
2016,04,08,03,34,11.70
2016,04,08,03,35,11.70
2016,04,08,03,36,11.70
2016,04,08,03,37,11.70
2016,04,08,03,38,11.70
2016,04,08,03,39,11.80
2016,04,08,03,40,11.80
2016,04,08,03,41,11.80
2016,04,08,03,42,11.80
2016,04,08,03,43,11.80
2016,04,08,03,44,11.80
2016,04,08,03,45,11.80
2016,04,08,03,46,11.80
2016,04,08,03,47,11.80
2016,04,08,03,48,11.80
2016,04,08,03,49,11.80
2016,04,08,03,50,11.90
2016,04,08,03,51,11.90
2016,04,08,03,52,11.90
2016,04,08,03,53,11.90
2016,04,08,03,54,11.90
2016,04,08,03,55,11.90
2016,04,08,03,56,11.90
2016,04,08,03,57,11.90
2016,04,08,03,58,11.90
2016,04,08,03,59,11.90
2016,04,08,04,00,11.90
2016,04,08,04,01,11.90
2016,04,08,04,02,11.90
2016,04,08,04,03,11.80
2016,04,08,04,04,11.80
2016,04,08,04,05,11.90
2016,04,08,04,06,11.90
2016,04,08,04,07,11.80
2016,04,08,04,08,11.80
2016,04,08,04,09,11.80
2016,04,08,04,10,11.80
2016,04,08,04,11,11.80
2016,04,08,04,12,11.80
2016,04,08,04,13,11.90
2016,04,08,04,14,11.90
2016,04,08,04,15,11.90
2016,04,08,04,16,12.00
2016,04,08,04,17,12.00
2016,04,08,04,18,12.00
2016,04,08,04,19,11.90
2016,04,08,04,20,11.90
2016,04,08,04,21,11.90
2016,04,08,04,22,12.00
2016,04,08,04,23,12.00
2016,04,08,04,24,12.10
2016,04,08,04,25,12.10
2016,04,08,04,26,12.10
2016,04,08,04,27,12.10
2016,04,08,04,28,12.10
2016,04,08,04,29,12.00
2016,04,08,04,30,12.00
2016,04,08,04,31,12.00
2016,04,08,04,32,11.90
2016,04,08,04,33,11.90
2016,04,08,04,34,11.90
2016,04,08,04,35,11.80
2016,04,08,04,36,11.90
2016,04,08,04,37,11.90
2016,04,08,04,38,11.90
2016,04,08,04,39,12.00
2016,04,08,04,40,12.00
2016,04,08,04,41,12.10
2016,04,08,04,42,12.10
2016,04,08,04,43,12.10
2016,04,08,04,44,12.10
2016,04,08,04,45,12.10
2016,04,08,04,46,12.10
2016,04,08,04,47,12.00
2016,04,08,04,48,12.00
2016,04,08,04,49,12.00
2016,04,08,04,50,12.00
2016,04,08,04,51,12.00
2016,04,08,04,52,12.00
2016,04,08,04,53,11.90
2016,04,08,04,54,11.90
2016,04,08,04,55,11.90
2016,04,08,04,56,11.90
2016,04,08,04,57,11.90
2016,04,08,04,58,11.90
2016,04,08,04,59,11.80
2016,04,08,05,00,11.80
2016,04,08,05,01,11.80
2016,04,08,05,02,11.80
2016,04,08,05,03,11.80
2016,04,08,05,04,11.80
2016,04,08,05,05,11.80
2016,04,08,05,06,11.80
2016,04,08,05,07,11.80
2016,04,08,05,08,11.80
2016,04,08,05,09,11.80
2016,04,08,05,10,11.80
2016,04,08,05,11,11.90
2016,04,08,05,12,11.90
2016,04,08,05,13,12.00
2016,04,08,05,14,12.10
2016,04,08,05,15,12.10
2016,04,08,05,16,12.10
2016,04,08,05,17,12.10
2016,04,08,05,18,12.10
2016,04,08,05,19,12.00
2016,04,08,05,20,12.00
2016,04,08,05,21,11.90
2016,04,08,05,22,11.90
2016,04,08,05,23,11.90
2016,04,08,05,24,11.80
2016,04,08,05,25,11.80
2016,04,08,05,26,11.80
2016,04,08,05,27,11.70
2016,04,08,05,28,11.70
2016,04,08,05,29,11.70
2016,04,08,05,30,11.70
2016,04,08,05,31,11.60
2016,04,08,05,32,11.60
2016,04,08,05,33,11.60
2016,04,08,05,34,11.60
2016,04,08,05,35,11.60
2016,04,08,05,36,11.60
2016,04,08,05,37,11.60
2016,04,08,05,38,11.70
2016,04,08,05,39,11.70
2016,04,08,05,40,11.80
2016,04,08,05,41,11.80
2016,04,08,05,42,11.80
2016,04,08,05,43,11.80
2016,04,08,05,44,11.80
2016,04,08,05,45,11.80
2016,04,08,05,46,11.80
2016,04,08,05,47,11.80
2016,04,08,05,48,11.90
2016,04,08,05,49,11.90
2016,04,08,05,50,12.00
2016,04,08,05,51,11.90
2016,04,08,05,52,11.90
2016,04,08,05,53,11.80
2016,04,08,05,54,11.90
2016,04,08,05,55,11.90
2016,04,08,05,56,12.00
2016,04,08,05,57,12.10
2016,04,08,05,58,12.10
2016,04,08,05,59,12.10
2016,04,08,06,00,12.10
2016,04,08,06,01,12.00
2016,04,08,06,02,12.00
2016,04,08,06,03,11.90
2016,04,08,06,04,11.90
2016,04,08,06,05,11.80
2016,04,08,06,06,11.90
2016,04,08,06,07,11.90
2016,04,08,06,08,11.90
2016,04,08,06,09,11.80
2016,04,08,06,10,11.60
2016,04,08,06,11,11.50
2016,04,08,06,12,11.30
2016,04,08,06,13,11.20
2016,04,08,06,14,11.00
2016,04,08,06,15,10.90
2016,04,08,06,16,10.80
2016,04,08,06,17,10.80
2016,04,08,06,18,10.80
2016,04,08,06,19,10.80
2016,04,08,06,20,10.80
2016,04,08,06,21,10.90
2016,04,08,06,22,10.90
2016,04,08,06,23,10.90
2016,04,08,06,24,10.90
2016,04,08,06,25,10.80
2016,04,08,06,26,10.80
2016,04,08,06,27,10.80
2016,04,08,06,28,10.80
2016,04,08,06,29,10.80
2016,04,08,06,30,10.80
2016,04,08,06,31,10.80
2016,04,08,06,32,10.80
2016,04,08,06,33,10.90
2016,04,08,06,34,10.90
2016,04,08,06,35,10.90
2016,04,08,06,36,10.90
2016,04,08,06,37,11.00
2016,04,08,06,38,11.10
2016,04,08,06,39,11.10
2016,04,08,06,40,11.10
2016,04,08,06,41,11.20
2016,04,08,06,42,11.20
2016,04,08,06,43,11.20
2016,04,08,06,44,11.20
2016,04,08,06,45,11.20
2016,04,08,06,46,11.20
2016,04,08,06,47,11.20
2016,04,08,06,48,11.20
2016,04,08,06,49,11.20
2016,04,08,06,50,11.20
2016,04,08,06,51,11.20
2016,04,08,06,52,11.20
2016,04,08,06,53,11.30
2016,04,08,06,54,11.30
2016,04,08,06,55,11.30
2016,04,08,06,56,11.30
2016,04,08,06,57,11.30
2016,04,08,06,58,11.30
2016,04,08,06,59,11.30
2016,04,08,07,00,11.20
2016,04,08,07,01,11.20
2016,04,08,07,02,11.10
2016,04,08,07,03,11.10
2016,04,08,07,04,11.20
2016,04,08,07,05,11.20
2016,04,08,07,06,11.30
2016,04,08,07,07,11.30
2016,04,08,07,08,11.30
2016,04,08,07,09,11.30
2016,04,08,07,10,11.30
2016,04,08,07,11,11.30
2016,04,08,07,12,11.30
2016,04,08,07,13,11.30
2016,04,08,07,14,11.40
2016,04,08,07,15,11.40
2016,04,08,07,16,11.40
2016,04,08,07,17,11.40
2016,04,08,07,18,11.40
2016,04,08,07,19,11.40
2016,04,08,07,20,11.40
2016,04,08,07,21,11.40
2016,04,08,07,22,11.40
2016,04,08,07,23,11.30
2016,04,08,07,24,11.30
2016,04,08,07,25,11.30
2016,04,08,07,26,11.30
2016,04,08,07,27,11.30
2016,04,08,07,28,11.30
2016,04,08,07,29,11.30
2016,04,08,07,30,11.30
2016,04,08,07,31,11.30
2016,04,08,07,32,11.30
2016,04,08,07,33,11.40
2016,04,08,07,34,11.40
2016,04,08,07,35,11.50
2016,04,08,07,36,11.50
2016,04,08,07,37,11.60
2016,04,08,07,38,11.60
2016,04,08,07,39,11.70
2016,04,08,07,40,11.80
2016,04,08,07,41,11.80
2016,04,08,07,42,12.00
2016,04,08,07,43,12.10
2016,04,08,07,44,12.20
2016,04,08,07,45,12.20
2016,04,08,07,46,12.30
2016,04,08,07,47,12.30
2016,04,08,07,48,12.20
2016,04,08,07,49,12.20
2016,04,08,07,50,12.20
2016,04,08,07,51,12.20
2016,04,08,07,52,12.20
2016,04,08,07,53,12.20
2016,04,08,07,54,12.10
2016,04,08,07,55,12.10
2016,04,08,07,56,12.10
2016,04,08,07,57,12.10
2016,04,08,07,58,12.10
2016,04,08,07,59,12.10
2016,04,08,08,00,12.20
2016,04,08,08,01,12.20
2016,04,08,08,02,12.20
2016,04,08,08,03,12.20
2016,04,08,08,04,12.20
2016,04,08,08,05,12.20
2016,04,08,08,06,12.30
2016,04,08,08,07,12.30
2016,04,08,08,08,12.40
2016,04,08,08,09,12.40
2016,04,08,08,10,12.60
2016,04,08,08,11,12.70
2016,04,08,08,12,12.80
2016,04,08,08,13,12.80
2016,04,08,08,14,13.00
2016,04,08,08,15,13.10
2016,04,08,08,16,13.20
2016,04,08,08,17,13.30
2016,04,08,08,18,13.40
2016,04,08,08,19,13.50
2016,04,08,08,20,13.60
2016,04,08,08,21,13.70
2016,04,08,08,22,13.80
2016,04,08,08,23,13.90
2016,04,08,08,24,13.90
2016,04,08,08,25,14.00
2016,04,08,08,26,13.90
2016,04,08,08,27,13.90
2016,04,08,08,28,13.80
2016,04,08,08,29,13.80
2016,04,08,08,30,13.70
2016,04,08,08,31,13.70
2016,04,08,08,32,13.60
2016,04,08,08,33,13.60
2016,04,08,08,34,13.50
2016,04,08,08,35,13.50
2016,04,08,08,36,13.50
2016,04,08,08,37,13.40
2016,04,08,08,38,13.50
2016,04,08,08,39,13.50
2016,04,08,08,40,13.50
2016,04,08,08,41,13.60
2016,04,08,08,42,13.60
2016,04,08,08,43,13.60
2016,04,08,08,44,13.60
2016,04,08,08,45,13.60
2016,04,08,08,46,13.70
2016,04,08,08,47,13.80
2016,04,08,08,48,13.80
2016,04,08,08,49,13.80
2016,04,08,08,50,13.80
2016,04,08,08,51,13.80
2016,04,08,08,52,13.90
2016,04,08,08,53,13.90
2016,04,08,08,54,13.90
2016,04,08,08,55,13.90
2016,04,08,08,56,14.00
2016,04,08,08,57,14.00
2016,04,08,08,58,14.10
2016,04,08,08,59,14.10
2016,04,08,09,00,14.20
2016,04,08,09,01,14.20
2016,04,08,09,02,14.20
2016,04,08,09,03,14.30
2016,04,08,09,04,14.30
2016,04,08,09,05,14.40
2016,04,08,09,06,14.40
2016,04,08,09,07,14.40
2016,04,08,09,08,14.40
2016,04,08,09,09,14.40
2016,04,08,09,10,14.50
2016,04,08,09,11,14.50
2016,04,08,09,12,14.50
2016,04,08,09,13,14.50
2016,04,08,09,14,14.50
2016,04,08,09,15,14.50
2016,04,08,09,16,14.50
2016,04,08,09,17,14.50
2016,04,08,09,18,14.50
2016,04,08,09,19,14.60
2016,04,08,09,20,14.60
2016,04,08,09,21,14.60
2016,04,08,09,22,14.60
2016,04,08,09,23,14.60
2016,04,08,09,24,14.60
2016,04,08,09,25,14.60
2016,04,08,09,26,14.60
2016,04,08,09,27,14.60
2016,04,08,09,28,14.60
2016,04,08,09,29,14.60
2016,04,08,09,30,14.60
2016,04,08,09,31,14.60
2016,04,08,09,32,14.70
2016,04,08,09,33,14.70
2016,04,08,09,34,14.70
2016,04,08,09,35,14.70
2016,04,08,09,36,14.80
2016,04,08,09,37,14.80
2016,04,08,09,38,14.90
2016,04,08,09,39,14.90
2016,04,08,09,40,14.90
2016,04,08,09,41,14.90
2016,04,08,09,42,14.80
2016,04,08,09,43,14.70
2016,04,08,09,44,14.70
2016,04,08,09,45,14.70
2016,04,08,09,46,14.70
2016,04,08,09,47,14.70
2016,04,08,09,48,14.70
2016,04,08,09,49,14.80
2016,04,08,09,50,14.80
2016,04,08,09,51,15.00
2016,04,08,09,52,15.00
2016,04,08,09,53,15.00
2016,04,08,09,54,15.00
2016,04,08,09,55,15.20
2016,04,08,09,56,15.30
2016,04,08,09,57,15.40
2016,04,08,09,58,15.50
2016,04,08,09,59,15.60
2016,04,08,10,00,15.60
2016,04,08,10,01,15.70
2016,04,08,10,02,15.70
2016,04,08,10,03,15.80
2016,04,08,10,04,15.80
2016,04,08,10,05,15.90
2016,04,08,10,06,16.00
2016,04,08,10,07,16.20
2016,04,08,10,08,16.30
2016,04,08,10,09,16.40
2016,04,08,10,10,16.50
2016,04,08,10,11,16.60
2016,04,08,10,12,16.60
2016,04,08,10,13,16.60
2016,04,08,10,14,16.70
2016,04,08,10,15,16.70
2016,04,08,10,16,16.80
2016,04,08,10,17,16.80
2016,04,08,10,18,16.80
2016,04,08,10,19,16.90
2016,04,08,10,20,16.90
2016,04,08,10,21,17.00
2016,04,08,10,22,17.00
2016,04,08,10,23,17.00
2016,04,08,10,24,16.90
2016,04,08,10,25,16.90
2016,04,08,10,26,17.00
2016,04,08,10,27,17.00
2016,04,08,10,28,17.10
2016,04,08,10,29,17.20
2016,04,08,10,30,17.20
2016,04,08,10,31,17.20
2016,04,08,10,32,17.20
2016,04,08,10,33,17.20
2016,04,08,10,34,17.10
2016,04,08,10,35,17.10
2016,04,08,10,36,17.10
2016,04,08,10,37,16.90
2016,04,08,10,38,16.70
2016,04,08,10,39,16.50
2016,04,08,10,40,16.30
2016,04,08,10,41,16.10
2016,04,08,10,42,16.00
2016,04,08,10,43,15.90
2016,04,08,10,44,15.80
2016,04,08,10,45,15.60
2016,04,08,10,46,15.40
2016,04,08,10,47,15.20
2016,04,08,10,48,15.00
2016,04,08,10,49,15.00
2016,04,08,10,50,14.90
2016,04,08,10,51,14.90
2016,04,08,10,52,14.80
2016,04,08,10,53,14.80
2016,04,08,10,54,14.80
2016,04,08,10,55,14.90
2016,04,08,10,56,14.90
2016,04,08,10,57,14.90
2016,04,08,10,58,14.90
2016,04,08,10,59,14.90
2016,04,08,11,00,14.90
2016,04,08,11,01,15.00
2016,04,08,11,02,15.00
2016,04,08,11,03,15.00
2016,04,08,11,04,15.00
2016,04,08,11,05,15.00
2016,04,08,11,06,15.00
2016,04,08,11,07,15.10
2016,04,08,11,08,15.20
2016,04,08,11,09,15.30
2016,04,08,11,10,15.40
2016,04,08,11,11,15.50
2016,04,08,11,12,15.60
2016,04,08,11,13,15.60
2016,04,08,11,14,15.50
2016,04,08,11,15,15.50
2016,04,08,11,16,15.50
2016,04,08,11,17,15.50
2016,04,08,11,18,15.50
2016,04,08,11,19,15.50
2016,04,08,11,20,15.50
2016,04,08,11,21,15.60
2016,04,08,11,22,15.70
2016,04,08,11,23,15.70
2016,04,08,11,24,15.70
2016,04,08,11,25,15.70
2016,04,08,11,26,15.80
2016,04,08,11,27,15.90
2016,04,08,11,28,16.00
2016,04,08,11,29,16.10
2016,04,08,11,30,16.20
2016,04,08,11,31,16.30
2016,04,08,11,32,16.30
2016,04,08,11,33,16.30
2016,04,08,11,34,16.30
2016,04,08,11,35,16.30
2016,04,08,11,36,16.40
2016,04,08,11,37,16.40
2016,04,08,11,38,16.40
2016,04,08,11,39,16.50
2016,04,08,11,40,16.60
2016,04,08,11,41,16.60
2016,04,08,11,42,16.60
2016,04,08,11,43,16.50
2016,04,08,11,44,16.50
2016,04,08,11,45,16.50
2016,04,08,11,46,16.40
2016,04,08,11,47,16.40
2016,04,08,11,48,16.40
2016,04,08,11,49,16.30
2016,04,08,11,50,16.30
2016,04,08,11,51,16.20
2016,04,08,11,52,16.20
2016,04,08,11,53,16.10
2016,04,08,11,54,16.00
2016,04,08,11,55,15.90
2016,04,08,11,56,15.80
2016,04,08,11,57,15.70
2016,04,08,11,58,15.50
2016,04,08,11,59,15.40
2016,04,08,12,00,15.20
2016,04,08,12,01,15.00
2016,04,08,12,02,15.00
2016,04,08,12,03,14.90
2016,04,08,12,04,14.90
2016,04,08,12,05,14.80
2016,04,08,12,06,14.80
2016,04,08,12,07,14.80
2016,04,08,12,08,14.90
2016,04,08,12,09,14.80
2016,04,08,12,10,14.90
2016,04,08,12,11,14.80
2016,04,08,12,12,14.70
2016,04,08,12,13,14.70
2016,04,08,12,14,14.80
2016,04,08,12,15,14.80
2016,04,08,12,16,14.70
2016,04,08,12,17,14.50
2016,04,08,12,18,14.40
2016,04,08,12,19,14.40
2016,04,08,12,20,14.40
2016,04,08,12,21,14.40
2016,04,08,12,22,14.40
2016,04,08,12,23,14.30
2016,04,08,12,24,14.20
2016,04,08,12,25,14.20
2016,04,08,12,26,14.20
2016,04,08,12,27,14.20
2016,04,08,12,28,14.20
2016,04,08,12,29,14.30
2016,04,08,12,30,14.40
2016,04,08,12,31,14.40
2016,04,08,12,32,14.40
2016,04,08,12,33,14.40
2016,04,08,12,34,14.40
2016,04,08,12,35,14.40
2016,04,08,12,36,14.50
2016,04,08,12,37,14.60
2016,04,08,12,38,14.80
2016,04,08,12,39,14.90
2016,04,08,12,40,15.00
2016,04,08,12,41,15.00
2016,04,08,12,42,15.00
2016,04,08,12,43,15.00
2016,04,08,12,44,15.00
2016,04,08,12,45,15.00
2016,04,08,12,46,15.00
2016,04,08,12,47,15.10
2016,04,08,12,48,15.30
2016,04,08,12,49,15.40
2016,04,08,12,50,15.50
2016,04,08,12,51,15.50
2016,04,08,12,52,15.60
2016,04,08,12,53,15.60
2016,04,08,12,54,15.60
2016,04,08,12,55,15.70
2016,04,08,12,56,15.70
2016,04,08,12,57,15.80
2016,04,08,12,58,15.80
2016,04,08,12,59,15.80
2016,04,08,13,00,15.90
2016,04,08,13,01,16.00
2016,04,08,13,02,16.00
2016,04,08,13,03,16.10
2016,04,08,13,04,16.10
2016,04,08,13,05,16.20
2016,04,08,13,06,16.20
2016,04,08,13,07,16.30
2016,04,08,13,08,16.40
2016,04,08,13,09,16.50
2016,04,08,13,10,16.60
2016,04,08,13,11,16.70
2016,04,08,13,12,16.80
2016,04,08,13,13,16.90
2016,04,08,13,14,17.00
2016,04,08,13,15,16.90
2016,04,08,13,16,16.90
2016,04,08,13,17,16.90
2016,04,08,13,18,16.90
2016,04,08,13,19,16.90
2016,04,08,13,20,16.90
2016,04,08,13,21,16.70
2016,04,08,13,22,16.50
2016,04,08,13,23,16.30
2016,04,08,13,24,16.20
2016,04,08,13,25,16.10
2016,04,08,13,26,15.90
2016,04,08,13,27,15.80
2016,04,08,13,28,15.80
2016,04,08,13,29,15.80
2016,04,08,13,30,15.80
2016,04,08,13,31,15.80
2016,04,08,13,32,15.80
2016,04,08,13,33,15.90
2016,04,08,13,34,15.90
2016,04,08,13,35,16.00
2016,04,08,13,36,16.10
2016,04,08,13,37,16.10
2016,04,08,13,38,16.20
2016,04,08,13,39,16.30
2016,04,08,13,40,16.40
2016,04,08,13,41,16.50
2016,04,08,13,42,16.50
2016,04,08,13,43,16.60
2016,04,08,13,44,16.70
2016,04,08,13,45,16.80
2016,04,08,13,46,16.90
2016,04,08,13,47,16.90
2016,04,08,13,48,16.90
2016,04,08,13,49,16.90
2016,04,08,13,50,16.80
2016,04,08,13,51,16.70
2016,04,08,13,52,16.70
2016,04,08,13,53,16.60
2016,04,08,13,54,16.60
2016,04,08,13,55,16.50
2016,04,08,13,56,16.40
2016,04,08,13,57,16.40
2016,04,08,13,58,16.40
2016,04,08,13,59,16.40
2016,04,08,14,00,16.30
2016,04,08,14,01,16.30
2016,04,08,14,02,16.30
2016,04,08,14,03,16.30
2016,04,08,14,04,16.30
2016,04,08,14,05,16.30
2016,04,08,14,06,16.40
2016,04,08,14,07,16.50
2016,04,08,14,08,16.50
2016,04,08,14,09,16.60
2016,04,08,14,10,16.60
2016,04,08,14,11,16.60
2016,04,08,14,12,16.60
2016,04,08,14,13,16.70
2016,04,08,14,14,16.70
2016,04,08,14,15,16.70
2016,04,08,14,16,16.70
2016,04,08,14,17,16.80
2016,04,08,14,18,16.80
2016,04,08,14,19,16.80
2016,04,08,14,20,16.80
2016,04,08,14,21,16.80
2016,04,08,14,22,16.80
2016,04,08,14,23,16.80
2016,04,08,14,24,16.80
2016,04,08,14,25,16.90
2016,04,08,14,26,16.90
2016,04,08,14,27,16.90
2016,04,08,14,28,16.80
2016,04,08,14,29,16.80
2016,04,08,14,30,16.70
2016,04,08,14,31,16.60
2016,04,08,14,32,16.60
2016,04,08,14,33,16.60
2016,04,08,14,34,16.70
2016,04,08,14,35,16.70
2016,04,08,14,36,16.70
2016,04,08,14,37,16.80
2016,04,08,14,38,16.90
2016,04,08,14,39,16.90
2016,04,08,14,40,16.90
2016,04,08,14,41,17.10
2016,04,08,14,42,17.10
2016,04,08,14,43,17.10
2016,04,08,14,44,17.10
2016,04,08,14,45,17.20
2016,04,08,14,46,17.20
2016,04,08,14,47,17.20
2016,04,08,14,48,17.10
2016,04,08,14,49,17.10
2016,04,08,14,50,17.10
2016,04,08,14,51,17.10
2016,04,08,14,52,17.10
2016,04,08,14,53,17.10
2016,04,08,14,54,17.20
2016,04,08,14,55,17.20
2016,04,08,14,56,17.30
2016,04,08,14,57,17.40
2016,04,08,14,58,17.40
2016,04,08,14,59,17.50
2016,04,08,15,00,17.60
2016,04,08,15,01,17.60
2016,04,08,15,02,17.70
2016,04,08,15,03,17.60
2016,04,08,15,04,17.70
2016,04,08,15,05,17.70
2016,04,08,15,06,17.70
2016,04,08,15,07,17.60
2016,04,08,15,08,17.60
2016,04,08,15,09,17.70
2016,04,08,15,10,17.70
2016,04,08,15,11,17.70
2016,04,08,15,12,17.60
2016,04,08,15,13,17.60
2016,04,08,15,14,17.60
2016,04,08,15,15,17.50
2016,04,08,15,16,17.50
2016,04,08,15,17,17.50
2016,04,08,15,18,17.60
2016,04,08,15,19,17.60
2016,04,08,15,20,17.70
2016,04,08,15,21,17.70
2016,04,08,15,22,17.70
2016,04,08,15,23,17.70
2016,04,08,15,24,17.80
2016,04,08,15,25,17.90
2016,04,08,15,26,17.90
2016,04,08,15,27,18.00
2016,04,08,15,28,18.00
2016,04,08,15,29,18.00
2016,04,08,15,30,18.00
2016,04,08,15,31,18.10
2016,04,08,15,32,18.10
2016,04,08,15,33,18.20
2016,04,08,15,34,18.30
2016,04,08,15,35,18.40
2016,04,08,15,36,18.40
2016,04,08,15,37,18.40
2016,04,08,15,38,18.40
2016,04,08,15,39,18.40
2016,04,08,15,40,18.50
2016,04,08,15,41,18.60
2016,04,08,15,42,18.70
2016,04,08,15,43,18.70
2016,04,08,15,44,18.80
2016,04,08,15,45,18.80
2016,04,08,15,46,18.80
2016,04,08,15,47,18.80
2016,04,08,15,48,18.80
2016,04,08,15,49,18.80
2016,04,08,15,50,18.80
2016,04,08,15,51,18.80
2016,04,08,15,52,18.80
2016,04,08,15,53,18.80
2016,04,08,15,54,18.80
2016,04,08,15,55,18.80
2016,04,08,15,56,18.80
2016,04,08,15,57,18.80
2016,04,08,15,58,18.90
2016,04,08,15,59,18.90
2016,04,08,16,00,18.90
2016,04,08,16,01,18.90
2016,04,08,16,02,18.90
2016,04,08,16,03,19.00
2016,04,08,16,04,19.00
2016,04,08,16,05,19.10
2016,04,08,16,06,19.10
2016,04,08,16,07,19.10
2016,04,08,16,08,19.10
2016,04,08,16,09,19.00
2016,04,08,16,10,19.00
2016,04,08,16,11,19.10
2016,04,08,16,12,19.10
2016,04,08,16,13,19.10
2016,04,08,16,14,19.10
2016,04,08,16,15,19.20
2016,04,08,16,16,19.20
2016,04,08,16,17,19.20
2016,04,08,16,18,19.30
2016,04,08,16,19,19.30
2016,04,08,16,20,19.40
2016,04,08,16,21,19.40
2016,04,08,16,22,19.40
2016,04,08,16,23,19.40
2016,04,08,16,24,19.40
2016,04,08,16,25,19.30
2016,04,08,16,26,19.30
2016,04,08,16,27,19.30
2016,04,08,16,28,19.30
2016,04,08,16,29,19.30
2016,04,08,16,30,19.30
2016,04,08,16,31,19.20
2016,04,08,16,32,19.20
2016,04,08,16,33,19.20
2016,04,08,16,34,19.20
2016,04,08,16,35,19.20
2016,04,08,16,36,19.20
2016,04,08,16,37,19.20
2016,04,08,16,38,19.30
2016,04,08,16,39,19.40
2016,04,08,16,40,19.40
2016,04,08,16,41,19.50
2016,04,08,16,42,19.50
2016,04,08,16,43,19.60
2016,04,08,16,44,19.50
2016,04,08,16,45,19.50
2016,04,08,16,46,19.50
2016,04,08,16,47,19.50
2016,04,08,16,48,19.50
2016,04,08,16,49,19.60
2016,04,08,16,50,19.60
2016,04,08,16,51,19.70
2016,04,08,16,52,19.70
2016,04,08,16,53,19.70
2016,04,08,16,54,19.70
2016,04,08,16,55,19.70
2016,04,08,16,56,19.70
2016,04,08,16,57,19.70
2016,04,08,16,58,19.70
2016,04,08,16,59,19.80
2016,04,08,17,00,19.80
2016,04,08,17,01,19.80
2016,04,08,17,02,19.80
2016,04,08,17,03,19.90
2016,04,08,17,04,19.80
2016,04,08,17,05,19.80
2016,04,08,17,06,19.80
2016,04,08,17,07,19.80
2016,04,08,17,08,19.80
2016,04,08,17,09,19.80
2016,04,08,17,10,19.80
2016,04,08,17,11,19.70
2016,04,08,17,12,19.80
2016,04,08,17,13,19.80
2016,04,08,17,14,19.80
2016,04,08,17,15,19.80
2016,04,08,17,16,19.80
2016,04,08,17,17,19.80
2016,04,08,17,18,19.80
2016,04,08,17,19,19.70